EA3E-2 Weather Reports


time (UTC)temp
C
wind
direction
speed
KPH
gust
KPH
rain 1hr
cm
rain 24hr
cm
rain mn
cm
humidity
%
barometer
mb
20260510062804 11 0 0.0 0.0 0.00 1.45 0.08 95 1010.8
20260510061904 11 0 0.0 0.0 0.00 1.45 0.08 95 1010.8
20260510061004 11 0 0.0 0.0 0.00 1.45 0.08 95 1010.9
20260510060104 11 0 0.0 0.0 0.00 1.45 0.08 95 1010.8
20260510055204 11 0 0.0 0.0 0.00 1.45 0.08 95 1010.9
20260510054304 11 0 0.0 0.0 0.00 1.45 0.08 95 1010.9
20260510052504 10 0 0.0 0.0 0.00 1.45 0.08 94 1010.8
20260510051604 10 0 0.0 0.0 0.00 1.45 0.08 94 1010.8
20260510045804 10 0 0.0 0.0 0.00 1.45 0.08 94 1010.7
20260510044904 10 0 0.0 0.0 0.00 1.45 0.08 94 1010.7
20260510044004 11 241 0.0 4.8 0.00 1.45 0.08 94 1010.8
20260510043104 10 242 3.2 6.4 0.00 1.45 0.08 94 1010.9
20260510042204 10 244 3.2 6.4 0.00 1.45 0.08 94 1010.7
20260510041304 10 250 1.6 6.4 0.00 1.45 0.08 94 1010.7
20260510040404 10 252 0.0 6.4 0.00 1.45 0.08 94 1010.8
20260510035504 11 0 0.0 0.0 0.00 1.45 0.08 94 1010.8
20260510034604 11 0 0.0 0.0 0.00 1.45 0.08 94 1010.9
20260510033704 11 0 0.0 0.0 0.00 1.45 0.08 94 1010.7
20260510031904 11 0 0.0 0.0 0.00 1.45 0.08 94 1010.9
20260510031004 11 0 0.0 0.0 0.00 1.45 0.08 94 1011.1
20260510030104 11 0 0.0 0.0 0.00 1.45 0.08 93 1011.0
20260510025204 11 0 0.0 0.0 0.00 1.45 0.08 93 1011.1
20260510024304 11 0 0.0 0.0 0.00 1.45 0.08 93 1011.0
20260510023404 12 0 0.0 0.0 0.00 1.45 0.08 93 1011.0
20260510022504 12 0 0.0 0.0 0.00 1.45 0.08 93 1011.0
20260510021604 12 0 0.0 0.0 0.00 1.45 0.08 93 1011.0
20260510014904 12 0 0.0 0.0 0.00 1.45 0.08 93 1011.0
20260510014004 12 0 0.0 0.0 0.00 1.45 0.08 93 1011.0
20260510013104 12 0 0.0 0.0 0.00 1.45 0.08 93 1011.1
20260510012204 12 0 0.0 0.0 0.00 1.45 0.08 93 1011.2
20260510011304 13 0 0.0 0.0 0.00 1.45 0.08 93 1011.2
20260510010404 13 0 0.0 0.0 0.00 1.45 0.08 93 1011.2
20260510005507 13 0 0.0 0.0 0.00 1.45 0.08 93 1011.3
20260510003704 13 0 0.0 0.0 0.00 1.45 0.08 93 1011.7
20260510002804 13 0 0.0 0.0 0.00 1.45 0.08 93 1011.8
20260510001904 13 0 0.0 0.0 0.03 1.45 0.08 93 1011.9
20260510001004 13 0 0.0 0.0 0.03 1.45 0.08 93 1012.0
20260510000104 13 0 0.0 0.0 0.03 1.45 0.08 93 1012.1
20260509235204 13 0 0.0 0.0 0.03 1.45 0.08 93 1012.4
20260509234304 13 0 0.0 0.0 0.03 1.45 0.08 93 1012.5
20260509231604 13 0 0.0 0.0 0.05 1.42 0.05 93 1012.9
20260509225804 13 253 3.2 6.4 0.05 1.42 0.05 93 1013.0
20260509224904 13 252 1.6 6.4 0.05 1.42 0.05 93 1013.1
20260509224004 13 252 0.0 6.4 0.05 1.40 0.05 93 1013.0
20260509223104 13 0 0.0 0.0 0.10 1.40 0.05 93 1013.0
20260509222204 13 240 1.6 4.8 0.15 1.40 0.05 93 1013.0
20260509221304 13 239 0.0 4.8 0.15 1.37 0.03 93 1012.9
20260509220404 13 0 0.0 0.0 0.15 1.37 0.00 93 1013.0
20260509215504 13 0 0.0 0.0 0.18 1.37 1.37 92 1013.1
20260509213704 13 238 4.8 4.8 0.15 1.32 1.32 92 1012.9
20260509211904 13 223 4.8 9.7 0.10 1.27 1.27 92 1012.7
20260509211004 13 231 3.2 8.0 0.08 1.24 1.24 92 1012.6
20260509205204 13 242 1.6 6.4 0.03 1.17 1.17 91 1012.5
20260509204304 13 244 4.8 11.3 0.00 1.17 1.17 91 1012.2
20260509203404 13 252 8.0 14.5 0.03 1.17 1.17 91 1011.7
20260509202504 13 250 6.4 14.5 0.03 1.17 1.17 91 1011.6
20260509201604 13 251 6.4 11.3 0.03 1.17 1.17 91 1011.5
20260509200704 13 249 3.2 11.3 0.05 1.17 1.17 92 1011.6
20260509194904 13 266 6.4 12.9 0.23 1.17 1.17 92 1011.2
20260509193104 13 314 6.4 16.1 0.48 1.14 1.14 92 1010.6
20260509192204 13 359 8.0 14.5 0.56 1.14 1.14 92 1010.2
20260509191304 13 29 8.0 16.1 0.58 1.12 1.12 91 1010.0
20260509190404 13 40 8.0 16.1 0.58 1.09 1.09 91 1010.6
20260509185504 13 40 3.2 14.5 0.58 1.02 1.02 90 1010.8
20260509184604 13 9 0.0 8.0 0.53 0.89 0.89 90 1011.2
20260509183704 13 0 0.0 0.0 0.51 0.76 0.79 89 1011.6
20260509182804 14 0 0.0 0.0 0.48 0.61 0.61 88 1011.8
20260509181904 13 0 0.0 0.0 0.53 0.56 0.56 87 1012.1
20260509180104 14 231 1.6 4.8 0.51 0.51 0.51 87 1012.2
20260509175204 15 231 1.6 6.4 0.41 0.41 0.43 88 1012.1
20260509174304 15 225 0.0 8.0 0.33 0.33 0.33 88 1012.1
20260509173404 16 187 0.0 6.4 0.23 0.23 0.23 89 1012.1
20260509171604 16 0 0.0 0.0 0.03 0.03 0.03 88 1012.1
20260509165804 16 176 1.6 9.7 0.00 0.00 0.00 87 1012.0
20260509164904 16 146 1.6 9.7 0.00 0.00 0.00 86 1011.9
20260509164007 16 138 0.0 6.4 0.00 0.00 0.00 85 1011.7
20260509163104 16 137 1.6 6.4 0.00 0.00 0.00 85 1011.4
20260509162204 16 135 3.2 11.3 0.00 0.00 0.00 84 1011.0
20260509161304 16 136 4.8 11.3 0.00 0.00 0.00 85 1010.9
20260509160404 16 142 4.8 8.0 0.00 0.00 0.00 85 1010.7
20260509155504 16 141 4.8 8.0 0.00 0.00 0.00 84 1011.1
20260509154604 16 137 4.8 8.0 0.00 0.00 0.00 83 1011.4
20260509152804 17 128 3.2 8.0 0.00 0.00 0.00 82 1011.3
20260509151904 17 136 1.6 11.3 0.00 0.00 0.00 81 1011.4
20260509151007 17 138 1.6 8.0 0.00 0.00 0.00 81 1011.9
20260509150104 17 137 4.8 8.0 0.00 0.00 0.00 81 1012.2
20260509144304 17 115 4.8 9.7 0.00 0.00 0.00 81 1012.1
20260509143404 17 114 1.6 9.7 0.00 0.00 0.00 80 1012.1
20260509142504 18 121 3.2 4.8 0.00 0.00 0.00 79 1012.2
20260509141604 17 122 4.8 11.3 0.00 0.00 0.00 79 1012.2
20260509140704 18 125 6.4 12.9 0.00 0.00 0.00 79 1012.2
20260509134903 18 113 8.0 14.5 0.00 0.00 0.00 79 1012.2
20260509133104 18 128 8.0 17.7 0.00 0.00 0.00 78 1012.3
20260509132204 18 125 9.7 16.1 0.00 0.00 0.00 79 1012.2
20260509131304 18 113 8.0 17.7 0.00 0.00 0.00 79 1012.4
20260509130404 18 100 6.4 14.5 0.00 0.00 0.00 79 1012.4
20260509125507 18 93 6.4 12.9 0.00 0.00 0.00 80 1012.5
20260509124604 18 122 6.4 16.1 0.00 0.00 0.00 81 1012.8
20260509123704 18 128 6.4 16.1 0.00 0.00 0.00 81 1013.2
20260509121904 17 133 8.0 14.5 0.00 0.00 0.00 81 1013.5
20260509121004 18 133 8.0 19.3 0.00 0.00 0.00 81 1013.5
20260509120104 18 139 6.4 19.3 0.00 0.00 0.00 79 1013.5
20260509115204 18 132 8.0 19.3 0.00 0.00 0.00 79 1013.4
20260509113403 18 128 8.0 14.5 0.00 0.00 0.00 78 1013.4
20260509111604 18 132 6.4 14.5 0.00 0.00 0.00 79 1013.6
20260509105804 18 121 8.0 17.7 0.00 0.00 0.00 80 1013.8
20260509104904 18 129 8.0 17.7 0.00 0.00 0.00 80 1013.8
20260509104003 18 142 8.0 17.7 0.00 0.00 0.00 78 1014.0
20260509103104 18 134 6.4 17.7 0.00 0.00 0.00 76 1014.0
20260509102204 18 134 4.8 14.5 0.00 0.00 0.00 76 1013.8
20260509101304 18 132 6.4 17.7 0.00 0.00 0.00 76 1014.0
20260509100404 18 144 4.8 16.1 0.00 0.00 0.00 78 1013.8
20260509094604 18 133 1.6 12.9 0.00 0.00 0.00 78 1013.6
20260509093704 18 123 1.6 4.8 0.00 0.00 0.00 78 1013.6
20260509092803 18 113 3.2 11.3 0.00 0.00 0.00 80 1013.4
20260509091003 18 130 1.6 11.3 0.00 0.00 0.00 80 1013.2
20260509090103 18 161 1.6 9.7 0.00 0.00 0.00 82 1013.2
20260509085205 17 213 0.0 11.3 0.00 0.00 0.00 82 1013.5
20260509084303 17 217 0.0 3.2 0.00 0.00 0.00 82 1013.7
20260509083404 17 0 0.0 0.0 0.00 0.00 0.00 82 1013.8
20260509082503 17 0 0.0 0.0 0.00 0.00 0.00 83 1013.8
20260509081603 16 0 0.0 0.0 0.00 0.00 0.00 83 1013.8
20260509080703 16 0 0.0 0.0 0.00 0.00 0.00 83 1013.9
20260509075803 16 0 0.0 0.0 0.00 0.00 0.00 84 1013.9
20260509074903 16 0 0.0 0.0 0.00 0.00 0.00 85 1014.0
20260509074003 15 0 0.0 0.0 0.00 0.00 0.00 86 1013.9
20260509073103 15 0 0.0 0.0 0.00 0.00 0.00 87 1014.1
20260509072203 14 0 0.0 0.0 0.00 0.00 0.00 89 1014.1
20260509071303 14 0 0.0 0.0 0.00 0.00 0.00 90 1014.1
20260509065503 13 0 0.0 0.0 0.00 0.00 0.00 91 1014.2
20260509064603 12 0 0.0 0.0 0.00 0.00 0.00 92 1014.1